Flag for U.S.A. Weather past 2 weeks in Harrisburg, Pennsylvania, U.S.A.

Now
54 °F

Clear.


Feels Like: 52 °F
Forecast: 47 / 65 °F
Wind: 7 mph from East

Location: Capital City Airport

Current Time: Apr 19, 2015 at 5:06:40 AM

Latest Report: Apr 19, 2015 at 3:56 AM


Visibility: 10 mi

Pressure: 30.11 "Hg

Humidity: 38%

Dew point: 29 °F

Location of HarrisburgLocation

Historic Weather in Harrisburg — Graph

°F

Harrisburg temperature yesterday

Maximum temperature yesterday: 81 °F (at 3:56 PM)
Minimum temperature yesterday: 48 °F (at 6:56 AM)
Average temperature yesterday: 66 °F

Past Weeks' High & Low Weather Summary

 TemperatureHumidityPressure
High81 °F (Apr 18, 3:56 PM)97% (Apr 10, 7:03 AM)30.45 "Hg (Apr 10, 7:03 AM)
Low33 °F (Apr 12, 6:56 AM)13% (Apr 15, 4:56 PM)29.70 "Hg (Apr 4, 3:56 AM)
Average54 °F57%30.15 "Hg
* Reported Apr 4 3:56 AM — Apr 19 3:56 AM, Harrisburg, Weather by CustomWeather, © 2015

Note: Actual official high and low records may vary slightly from our data, if they occured in-between our weather recording intervals... More about our weather records

Advertising

Harrisburg weather history for previous 24 hours

 ConditionsComfort  
Time TempWeatherWind HumidityBarometerVisibility
3:56 AM
Sun, Apr 19
54 °FClear.7 mph38%30.11 "Hg10 mi
2:56 AM59 °FClear.8 mph29%30.10 "Hg10 mi
1:56 AM60 °FClear.10 mph31%30.09 "Hg10 mi
12:56 AM63 °FClear.5 mph30%30.06 "Hg10 mi
11:56 PM
Sat, Apr 18
68 °FClear.8 mph28%30.06 "Hg10 mi
10:56 PM71 °FClear.6 mph27%30.02 "Hg10 mi
9:56 PM69 °FClear.3 mph36%29.99 "Hg10 mi
8:56 PM70 °FClear.No wind37%29.96 "Hg10 mi
7:56 PM72 °FSunny.5 mph33%29.93 "Hg8 mi
6:56 PM77 °FSunny.6 mph24%29.93 "Hg10 mi
5:56 PM80 °FSunny.9 mph24%29.93 "Hg10 mi
4:56 PM80 °FSunny.6 mph25%29.92 "Hg10 mi
3:56 PM81 °FSunny.8 mph21%29.91 "Hg10 mi
2:56 PM79 °FSunny.8 mph26%29.93 "Hg10 mi
1:56 PM77 °FSunny.No wind29%29.95 "Hg10 mi
12:56 PM76 °FSunny.7 mph31%29.97 "Hg10 mi
11:56 AM74 °FSunny.5 mph31%30.01 "Hg10 mi
10:56 AM71 °FSunny.5 mph39%30.03 "Hg10 mi
9:56 AM68 °FSunny.6 mph49%30.03 "Hg10 mi
8:56 AM61 °FSunny.6 mph67%30.05 "Hg10 mi
7:56 AM56 °FSunny.No wind75%30.04 "Hg9 mi
6:56 AM48 °FFog.3 mph89%30.03 "Hg6 mi
5:56 AM49 °FClear.5 mph86%30.01 "Hg9 mi
Weather by CustomWeather, © 2015

See weather overviewHow to use our weather pages